GFSNIL_sfc_dewp_024.txt.gz
Dewpoint
38 41 46 50 49 44 44 42 41 39 37 37 40 41 41 41 40 37 38 36 35 37
39 37 42 48 49 47 44 43 41 39 37 37 38 39 40 40 39 37 37 38 38 37
41 38 37 40 47 47 46 42 40 40 38 37 37 38 39 39 38 36 38 38 37 36
41 40 36 37 43 45 45 43 40 39 38 37 37 37 38 37 37 36 36 35 36 36
41 42 39 36 37 39 43 43 41 39 38 37 36 37 36 36 34 35 35 36 35 34
41 43 40 36 36 36 39 41 40 39 38 37 36 35 35 34 33 33 34 35 35 34
43 43 42 40 36 36 37 39 39 38 38 37 35 34 34 33 32 32 32 34 33 32
44 43 41 42 39 36 36 37 38 37 37 36 35 33 32 32 32 30 30 31 31 33
44 43 42 43 44 39 36 36 37 36 36 35 33 43 44 37 32 31 30 31 30 29
41 42 40 43 45 45 41 36 36 34 34 34 33 46 47 45 32 32 30 31 32 30
39 39 38 39 44 45 45 36 36 33 33 33 32 47 47 46 33 33 32 31 32 34
38 36 37 38 43 44 45 42 36 33 32 32 31 47 47 40 33 33 33 34 34 35
37 37 36 35 37 44 46 45 36 32 32 38 38 47 47 39 33 32 34 34 34 44
37 37 37 34 32 44 46 46 37 31 31 33 38 42 47 43 32 33 33 33 34 36

GFSNIL_sfc_dewp_027.txt.gz
Dewpoint
42 43 42 41 39 40 47 45 43 41 40 40 40 41 41 41 39 38 38 34 35 36
41 41 41 42 41 40 42 46 43 41 40 39 39 40 40 40 38 37 37 36 35 36
40 40 41 42 42 39 38 46 44 42 40 39 38 40 40 39 38 36 37 37 36 36
38 40 41 42 43 40 38 42 44 42 41 39 38 39 39 38 38 36 36 37 37 36
36 39 42 43 42 41 40 37 43 42 41 39 38 38 38 37 37 35 35 36 36 36
34 39 43 43 42 41 41 39 37 40 40 39 38 37 37 37 36 36 35 35 35 35
34 43 43 42 42 42 42 42 42 42 41 40 38 37 37 37 35 35 35 35 35 34
34 38 45 44 43 43 42 43 44 46 42 39 37 36 37 36 34 34 34 35 35 35
32 34 35 44 45 43 43 43 45 47 44 39 36 44 45 39 33 33 32 33 33 34
30 32 40 45 43 42 44 45 45 46 45 39 37 47 48 45 33 32 31 31 31 30
30 35 39 38 38 40 44 44 45 45 45 38 37 48 48 46 32 31 30 31 31 30
34 36 37 37 38 39 41 43 43 44 45 37 35 48 49 42 31 30 31 32 33 33
31 35 36 37 37 39 40 41 42 43 46 41 34 48 49 37 31 31 32 33 36 41
31 34 34 36 36 38 39 38 41 44 46 39 35 45 48 43 30 31 33 33 36 40

GFSNIL_sfc_dewp_030.txt.gz
Dewpoint
32 40 42 42 41 42 42 41 41 44 44 42 41 42 41 41 40 39 39 37 36 36
31 40 40 40 40 43 43 42 39 40 44 43 41 41 41 41 40 40 39 38 37 36
33 37 38 39 41 43 43 40 40 40 41 44 42 41 41 41 40 39 39 39 36 35
34 34 36 37 38 44 42 42 41 40 39 43 43 40 40 40 40 39 38 37 36 35
32 33 34 34 38 43 42 42 42 41 41 42 43 41 39 39 39 38 37 37 36 35
31 33 32 32 41 41 42 42 42 42 42 43 44 42 40 41 39 38 36 36 36 35
30 31 32 35 38 42 41 42 42 42 42 44 44 44 43 40 39 38 36 36 36 35
31 32 35 38 39 38 42 43 43 44 45 45 45 45 42 41 39 37 36 36 35 36
30 32 35 33 35 43 44 42 43 43 44 45 46 48 50 44 38 37 35 35 35 35
30 31 32 34 42 42 41 41 41 42 44 44 45 49 50 50 40 37 35 35 35 33
30 30 35 34 36 39 39 39 40 41 43 43 44 48 50 50 43 36 34 34 34 33
29 31 31 32 36 38 39 38 39 41 42 42 42 46 49 49 43 36 33 32 33 32
31 31 31 31 36 37 37 38 39 39 42 43 42 47 48 50 40 33 32 31 32 39
32 32 32 33 32 33 35 37 39 39 40 42 44 47 48 50 39 34 31 31 35 37

GFSNIL_sfc_dewp_033.txt.gz
Dewpoint
30 33 39 41 41 40 41 42 43 42 41 42 43 44 42 42 41 39 39 37 36 36
29 31 37 37 38 39 41 43 43 41 40 40 41 43 43 42 41 40 39 39 37 36
30 33 33 36 38 39 40 43 42 42 41 41 40 41 44 43 42 41 41 40 38 37
31 31 31 32 33 34 35 42 42 42 42 41 41 43 43 42 42 41 40 40 39 37
31 31 31 31 32 32 34 40 42 42 42 42 42 42 42 42 41 41 41 40 39 38
30 30 31 31 31 32 35 40 41 41 42 42 42 43 43 44 42 42 42 41 39 38
29 30 31 31 31 33 37 37 39 41 42 42 42 42 43 42 43 43 43 43 42 39
29 30 33 34 34 35 33 34 40 43 43 43 43 43 43 43 43 44 44 45 43 39
29 30 32 33 34 34 34 43 43 43 42 41 41 44 46 46 43 45 45 44 43 37
27 28 31 33 33 35 39 38 40 40 40 39 39 44 46 46 43 44 47 44 42 36
28 28 30 32 32 35 36 37 39 39 39 39 40 44 45 46 43 45 48 41 39 36
30 29 29 30 33 34 35 37 39 38 38 39 39 43 44 45 44 47 46 41 38 36
28 30 30 29 32 33 36 37 36 34 36 40 40 42 44 44 44 46 44 42 41 42
31 31 30 32 32 33 32 31 31 35 37 39 40 40 43 45 46 44 42 40 37 37

GFSNIL_sfc_dewp_036.txt.gz
Dewpoint
29 32 33 36 38 38 39 39 40 42 43 41 41 41 43 44 43 41 40 38 37 38
29 30 32 33 36 37 37 39 40 42 42 41 41 41 41 43 43 43 42 41 39 37
29 30 32 33 33 35 37 38 38 41 42 42 41 41 41 43 44 43 43 42 40 39
29 30 31 31 31 33 35 36 38 40 42 42 42 41 42 42 43 43 42 42 41 40
29 30 30 30 30 32 32 34 36 41 41 42 42 42 42 41 42 42 42 42 41 40
30 30 29 29 29 31 31 31 36 38 39 41 42 42 42 42 42 42 42 42 42 41
30 30 28 29 30 31 31 32 35 35 38 40 42 42 42 42 42 42 42 43 43 43
32 30 30 30 31 31 32 33 34 35 39 42 42 42 41 42 42 42 43 44 44 43
33 32 30 30 31 32 32 33 35 41 40 39 41 43 42 40 38 41 43 43 44 45
29 31 31 31 30 31 33 34 37 38 38 38 40 43 42 41 38 39 39 41 42 44
27 28 30 30 30 32 34 35 36 36 37 38 39 42 40 41 40 39 41 42 42 43
28 28 28 29 32 32 33 34 35 36 37 38 37 40 40 40 40 41 42 43 42 44
33 32 30 30 31 34 33 33 35 36 37 37 33 37 40 41 41 41 42 42 42 46
38 36 35 33 31 32 35 32 33 32 32 33 35 37 42 43 41 42 42 42 43 43

GFSNIL_sfc_dewp_042.txt.gz
Dewpoint
26 28 29 30 31 31 31 32 34 34 33 32 31 32 35 38 42 42 39 41 41 42
23 26 29 30 30 32 31 31 32 32 33 32 33 32 33 35 40 40 38 38 40 42
25 26 28 28 29 31 31 32 33 33 32 33 32 31 32 35 40 39 38 37 38 39
27 27 28 28 29 31 31 29 30 32 33 32 31 31 30 32 35 35 36 37 38 39
28 28 28 29 29 29 30 30 31 30 32 30 30 31 30 32 31 32 34 34 37 38
28 28 28 28 29 29 29 30 30 29 30 31 31 30 31 31 30 30 31 34 36 38
28 29 29 30 29 29 28 28 29 29 29 33 32 32 32 32 34 36 38 36 37 36
29 29 30 30 30 30 29 28 29 30 30 32 32 31 34 37 36 35 35 35 35 36
34 34 33 32 31 31 31 30 29 30 32 32 30 37 38 39 35 34 34 34 34 35
33 33 35 35 34 32 33 32 31 30 33 36 35 38 39 41 40 35 33 33 34 34
32 34 36 38 37 36 36 35 33 32 32 35 35 39 40 41 40 38 35 34 35 35
33 35 37 39 39 39 39 35 35 33 34 33 32 37 39 40 39 38 35 34 34 34
35 38 37 39 39 39 37 36 36 38 36 37 35 37 39 39 37 34 33 33 33 39
38 38 39 39 39 39 37 38 35 36 35 34 34 33 38 39 35 33 31 32 35 35

GFSNIL_sfc_dewp_045.txt.gz
Dewpoint
26 29 28 29 28 29 31 33 35 34 34 33 34 36 37 37 38 40 40 43 42 41
22 26 29 29 30 31 31 31 32 34 34 34 34 35 36 36 35 35 36 40 42 40
25 26 29 30 30 32 32 34 34 35 34 35 34 33 35 36 35 33 35 38 40 38
27 27 27 28 30 31 32 32 33 32 33 32 33 32 33 32 33 32 33 37 39 38
28 28 28 28 28 28 30 31 31 31 32 32 32 31 32 32 30 31 32 34 36 36
28 29 28 28 28 28 29 30 30 30 30 31 32 31 31 31 31 31 31 31 32 34
29 30 31 32 32 32 30 30 30 30 30 31 31 32 32 33 35 34 32 31 32 31
30 32 32 33 33 33 33 33 32 31 31 31 31 29 33 34 37 37 36 35 33 36
31 32 32 33 33 33 35 36 35 33 32 32 29 35 38 39 38 39 39 39 41 35
31 31 33 33 33 35 37 37 37 37 36 34 33 38 39 41 39 39 39 41 42 36
31 31 32 33 35 37 38 39 40 39 39 35 34 39 40 41 40 41 39 40 38 36
32 33 35 35 37 39 39 40 39 39 35 35 34 38 39 39 40 40 39 40 39 38
34 34 35 37 39 40 40 39 39 38 34 35 35 38 39 39 40 39 38 39 39 42
34 36 36 38 39 40 39 39 36 35 34 34 34 35 38 40 38 38 38 36 36 34

GFSNIL_sfc_dewp_048.txt.gz
Dewpoint
23 28 28 28 29 28 29 30 31 31 32 30 30 31 32 34 37 36 36 35 35 37
23 25 28 28 28 31 30 31 31 32 32 32 32 32 32 35 34 33 33 34 37 38
25 26 27 28 28 29 29 30 31 31 31 32 33 33 32 32 32 33 33 33 32 33
26 27 28 28 29 29 30 29 30 30 30 30 30 31 31 30 31 31 32 33 32 32
28 28 28 29 29 29 30 31 31 30 30 30 30 30 30 31 32 30 30 31 32 31
28 29 29 30 31 31 32 31 32 31 31 31 31 30 30 30 31 31 31 31 31 31
30 30 30 31 31 31 31 31 32 33 33 34 33 32 31 30 30 32 33 34 36 35
30 30 30 31 31 31 33 32 33 33 34 35 35 34 32 30 31 34 34 35 36 38
30 30 30 31 31 31 31 32 34 35 36 38 38 42 42 38 35 34 36 36 39 38
29 29 30 31 32 33 33 34 35 38 39 39 39 43 45 42 37 36 37 39 40 39
30 30 31 33 32 33 35 37 39 39 39 38 38 43 41 40 37 38 38 39 40 41
31 31 32 32 34 36 37 38 39 40 37 36 37 41 39 39 37 38 38 39 40 39
31 32 34 34 35 36 37 38 38 39 38 39 38 39 39 38 37 37 38 40 39 41
33 34 34 35 36 36 37 38 38 39 36 36 34 34 38 38 37 38 37 38 37 38